When you browse on this site, cookies collect data to enhance your experience and personalize the content and advertising you see.
Visit our Privacy Policy to learn more. By continuing to use the site, you agree to this use of cookies and data.
  • In Austria
  • List of Countries
  • For 7 days
  • Water Temperature
  • Satellite Maps
  • Weather Map
  • News
  • Weather Widgets
  • user-avatar
    Login

    Hourly Weather Silopi

    Today, 19 November, Monday

    Time Temperature Precipitation Wind Pressure Humidity
    00:00 +12°C° 0 mm 1 mps 719 mmHg 63%
    01:00 +12°C° 0 mm 1 mps 718 mmHg 62%
    02:00 +12°C° 0 mm 1 mps 718 mmHg 62%
    03:00 +12°C° 0 mm 1 mps 718 mmHg 61%
    04:00 +12°C° 0 mm 1 mps 718 mmHg 60%
    05:00 +11°C° 0 mm 1 mps 718 mmHg 60%
    06:00 +11°C° 0 mm 1 mps 718 mmHg 59%
    07:00 +12°C° 0 mm 1 mps 718 mmHg 54%
    08:00 +13°C° 0 mm 1 mps 719 mmHg 50%
    09:00 +14°C° 0 mm 0 mps 719 mmHg 45%
    10:00 +16°C° 0 mm 1 mps 719 mmHg 43%
    11:00 +18°C° 0 mm 1 mps 719 mmHg 40%
    12:00 +19°C° 0 mm 1 mps 719 mmHg 37%
    13:00 +19°C° 0 mm 1 mps 719 mmHg 37%
    14:00 +19°C° 0 mm 1 mps 719 mmHg 36%
    15:00 +18°C° 0 mm 2 mps 718 mmHg 36%
    16:00 +18°C° 0 mm 1 mps 718 mmHg 40%
    17:00 +16°C° 0 mm 1 mps 718 mmHg 44%
    18:00 +15°C° 0 mm 1 mps 718 mmHg 49%
    19:00 +15°C° 0 mm 1 mps 718 mmHg 49%
    20:00 +14°C° 0 mm 1 mps 718 mmHg 50%
    21:00 +14°C° 0 mm 1 mps 718 mmHg 51%
    22:00 +14°C° 0 mm 1 mps 718 mmHg 51%
    23:00 +14°C° 0 mm 1 mps 718 mmHg 51%

    Tomorrow, 20 November, Tuesday

    Time Temperature Precipitation Wind Pressure Humidity
    00:00 +13°C° 0 mm 1 mps 718 mmHg 52%
    01:00 +13°C° 0 mm 1 mps 718 mmHg 51%
    02:00 +13°C° 0 mm 1 mps 718 mmHg 51%
    03:00 +13°C° 0 mm 1 mps 718 mmHg 51%
    04:00 +12°C° 0 mm 1 mps 718 mmHg 51%
    05:00 +12°C° 0 mm 1 mps 718 mmHg 51%
    06:00 +12°C° 0 mm 1 mps 718 mmHg 50%
    07:00 +13°C° 0 mm 1 mps 718 mmHg 47%
    08:00 +14°C° 0 mm 1 mps 719 mmHg 44%
    09:00 +16°C° 0 mm 1 mps 719 mmHg 41%
    10:00 +18°C° 0 mm 1 mps 719 mmHg 38%
    11:00 +19°C° 0 mm 1 mps 719 mmHg 36%
    12:00 +19°C° 0 mm 2 mps 718 mmHg 33%
    13:00 +19°C° 0 mm 2 mps 718 mmHg 33%
    14:00 +19°C° 0 mm 2 mps 718 mmHg 33%
    15:00 +20°C° 0 mm 2 mps 718 mmHg 33%
    16:00 +18°C° 0 mm 2 mps 718 mmHg 39%
    17:00 +18°C° 0 mm 1 mps 717 mmHg 45%
    18:00 +15°C° 0 mm 1 mps 717 mmHg 50%
    19:00 +15°C° 0 mm 1 mps 717 mmHg 51%
    20:00 +15°C° 0 mm 1 mps 717 mmHg 52%
    21:00 +14°C° 0 mm 1 mps 718 mmHg 53%
    22:00 +14°C° 0 mm 1 mps 718 mmHg 53%
    23:00 +13°C° 0 mm 1 mps 717 mmHg 53%

    Day after tomorrow, 21 November, Wednesday

    Time Temperature Precipitation Wind Pressure Humidity
    00:00 +13°C° 0 mm 1 mps 717 mmHg 53%
    01:00 +13°C° 0 mm 1 mps 717 mmHg 54%
    02:00 +13°C° 0 mm 1 mps 717 mmHg 54%
    03:00 +12°C° 0 mm 1 mps 717 mmHg 54%
    04:00 +12°C° 0 mm 1 mps 717 mmHg 54%
    05:00 +12°C° 0 mm 1 mps 717 mmHg 54%
    06:00 +12°C° 0 mm 1 mps 716 mmHg 55%
    07:00 +13°C° 0 mm 1 mps 717 mmHg 52%
    08:00 +14°C° 0 mm 1 mps 717 mmHg 48%
    09:00 +15°C° 0 mm 1 mps 718 mmHg 45%
    10:00 +16°C° 0 mm 1 mps 717 mmHg 43%
    11:00 +18°C° 0 mm 1 mps 717 mmHg 42%
    12:00 +18°C° 0 mm 2 mps 717 mmHg 40%
    13:00 +18°C° 0 mm 2 mps 717 mmHg 40%
    14:00 +18°C° 0 mm 2 mps 716 mmHg 41%
    15:00 +19°C° 0 mm 1 mps 716 mmHg 41%
    16:00 +18°C° 0 mm 1 mps 716 mmHg 45%
    17:00 +16°C° 0 mm 1 mps 716 mmHg 49%
    18:00 +16°C° 0 mm 1 mps 716 mmHg 52%
    19:00 +15°C° 0 mm 1 mps 716 mmHg 53%
    20:00 +15°C° 0 mm 1 mps 716 mmHg 54%
    21:00 +15°C° 0 mm 1 mps 716 mmHg 55%
    22:00 +15°C° 0 mm 1 mps 716 mmHg 56%
    23:00 +14°C° 0 mm 1 mps 716 mmHg 57%

    22 November, Thursday

    Time Temperature Precipitation Wind Pressure Humidity
    00:00 +14°C° 0 mm 1 mps 716 mmHg 58%
    01:00 +14°C° 0 mm 1 mps 716 mmHg 58%
    02:00 +14°C° 0 mm 1 mps 716 mmHg 59%
    03:00 +14°C° 0 mm 1 mps 716 mmHg 59%
    04:00 +14°C° 0 mm 1 mps 715 mmHg 59%
    05:00 +14°C° 0 mm 2 mps 715 mmHg 59%
    06:00 +13°C° 0 mm 2 mps 715 mmHg 59%
    07:00 +14°C° 0.3 mm 2 mps 715 mmHg 60%
    08:00 +14°C° 0.3 mm 2 mps 716 mmHg 61%
    09:00 +14°C° 0.3 mm 2 mps 716 mmHg 62%
    10:00 +14°C° 1 mm 2 mps 715 mmHg 66%
    11:00 +12°C° 1 mm 3 mps 715 mmHg 70%
    12:00 +12°C° 1 mm 3 mps 715 mmHg 74%
    13:00 +12°C° 0.6 mm 3 mps 715 mmHg 75%
    14:00 +12°C° 0.6 mm 3 mps 714 mmHg 75%
    15:00 +13°C° 0.6 mm 3 mps 714 mmHg 76%
    16:00 +12°C° 0.5 mm 3 mps 714 mmHg 77%
    17:00 +12°C° 0.5 mm 3 mps 714 mmHg 78%
    18:00 +13°C° 0.5 mm 2 mps 714 mmHg 80%
    19:00 +13°C° 0.6 mm 2 mps 714 mmHg 81%
    20:00 +13°C° 0.6 mm 2 mps 715 mmHg 82%
    21:00 +13°C° 0.6 mm 2 mps 715 mmHg 83%
    22:00 +13°C° 0.9 mm 2 mps 715 mmHg 84%
    23:00 +13°C° 0.9 mm 2 mps 715 mmHg 86%

    23 November, Friday

    Time Temperature Precipitation Wind Pressure Humidity
    00:00 +13°C° 0.9 mm 2 mps 715 mmHg 87%
    01:00 +13°C° 0.8 mm 2 mps 714 mmHg 87%
    02:00 +13°C° 0.8 mm 2 mps 714 mmHg 87%
    03:00 +13°C° 0.8 mm 2 mps 714 mmHg 87%
    04:00 +13°C° 0.3 mm 1 mps 714 mmHg 87%
    05:00 +13°C° 0.3 mm 1 mps 714 mmHg 86%
    06:00 +13°C° 0.3 mm 1 mps 714 mmHg 86%
    07:00 +13°C° 0 mm 1 mps 715 mmHg 83%
    08:00 +14°C° 0 mm 1 mps 715 mmHg 80%
    09:00 +14°C° 0 mm 2 mps 715 mmHg 76%
    10:00 +15°C° 0.1 mm 2 mps 715 mmHg 72%
    11:00 +16°C° 0.1 mm 2 mps 715 mmHg 68%
    12:00 +16°C° 0.1 mm 3 mps 715 mmHg 64%
    13:00 +16°C° 0.2 mm 3 mps 715 mmHg 66%
    14:00 +16°C° 0.2 mm 3 mps 714 mmHg 67%
    15:00 +16°C° 0.2 mm 3 mps 714 mmHg 69%
    16:00 +15°C° 0.4 mm 2 mps 715 mmHg 73%
    17:00 +15°C° 0.4 mm 2 mps 715 mmHg 77%
    18:00 +14°C° 0.4 mm 1 mps 715 mmHg 82%
    19:00 +14°C° 0.2 mm 1 mps 715 mmHg 82%
    20:00 +13°C° 0.2 mm 1 mps 716 mmHg 83%
    21:00 +13°C° 0.2 mm 1 mps 716 mmHg 83%
    22:00 +13°C° 0.2 mm 1 mps 716 mmHg 83%
    23:00 +13°C° 0.2 mm 1 mps 716 mmHg 83%

    24 November, Saturday

    Time Temperature Precipitation Wind Pressure Humidity
    00:00 +13°C° 0.2 mm 1 mps 717 mmHg 83%
    01:00 +13°C° 0.5 mm 2 mps 717 mmHg 83%
    02:00 +13°C° 0.5 mm 2 mps 717 mmHg 84%
    03:00 +13°C° 0.5 mm 2 mps 717 mmHg 84%
    04:00 +13°C° 1 mm 2 mps 717 mmHg 85%
    05:00 +13°C° 1 mm 2 mps 718 mmHg 86%
    06:00 +12°C° 1 mm 2 mps 718 mmHg 87%
    07:00 +13°C° 0.9 mm 2 mps 718 mmHg 85%
    08:00 +13°C° 0.9 mm 2 mps 719 mmHg 84%
    09:00 +13°C° 0.9 mm 2 mps 719 mmHg 82%
    10:00 +14°C° 0.2 mm 2 mps 719 mmHg 77%
    11:00 +15°C° 0.2 mm 2 mps 719 mmHg 71%
    12:00 +16°C° 0.2 mm 2 mps 719 mmHg 66%
    13:00 +16°C° 0.1 mm 2 mps 719 mmHg 64%
    14:00 +16°C° 0.1 mm 2 mps 718 mmHg 63%
    15:00 +17°C° 0.1 mm 2 mps 718 mmHg 61%
    16:00 +16°C° 0.1 mm 2 mps 718 mmHg 65%
    17:00 +15°C° 0.1 mm 1 mps 718 mmHg 69%
    18:00 +15°C° 0.1 mm 1 mps 718 mmHg 73%
    19:00 +14°C° 0 mm 1 mps 718 mmHg 73%
    20:00 +14°C° 0 mm 1 mps 718 mmHg 73%
    21:00 +14°C° 0 mm 2 mps 718 mmHg 73%
    22:00 +14°C° 0 mm 2 mps 717 mmHg 72%
    23:00 +14°C° 0 mm 2 mps 717 mmHg 70%
    Show more